Location: Chino
(34.0122°N, 117.6889°W)
Time: 11:09:19
(UTC+00:00)

Daily predictions for brighter satellites

Satellite Brightness Start Highest point End
(mag) Time Altitude Azimuth Time Altitude Azimuth Time Altitude Azimuth
ISS -0.7 12:17:34 16° E 12:17:34 16° E 12:18:44 10° E
Cosmos 2344 4.2 12:10:38 23° NNW 12:16:55 79° ENE 12:29:12 10° SSE
COSMOS 2455 2.7 12:23:00 79° NNW 12:23:00 79° NNW 12:28:47 10° NNE
SL-08 R/B 4.4 12:26:09 50° SSW 12:27:56 77° W 12:34:26 10° N
Cosmos 1934 Rocket 3.9 12:23:48 10° S 12:29:52 84° E 12:36:04 10° N
Cosmos 1777 Rocket 3.9 12:33:03 55° S 12:34:13 82° ESE 12:39:24 10° NNE
Cosmos 1486 Rocket 3.9 12:36:44 75° WNW 12:36:44 75° WNW 12:41:55 10° NNE
OAO 3 Rocket 3.8 12:39:22 42° S 12:39:22 42° S 12:42:58 10° SE
Cosmos 2227 Rocket 2.8 12:34:07 10° NNW 12:39:36 56° ENE 12:45:08 10° SE
Meteor 2-16 Rocket 4.3 12:38:33 10° N 12:44:39 77° W 12:50:45 10° S
Cosmos 773 Rocket 4.3 12:44:17 10° N 12:49:29 64° ENE 12:54:36 10° SSE
Cosmos 1605 Rocket 4.3 12:43:54 10° S 12:50:14 68° E 12:56:34 10° NNE
SJ-11-01 4.4 12:48:18 10° N 12:52:12 51° NW 12:52:12 51° NW
Aureole 3 4.0 12:49:37 10° NNW 12:55:39 45° SW 12:58:42 10° S
Cosmos 1674 Rocket 3.9 12:50:32 10° N 12:54:55 64° E 12:59:15 10° SSE
Meteor 2-21 Rocket 4.5 12:49:37 10° NNW 12:55:30 52° W 13:01:20 10° SSW
Cosmos 2242 Rocket 4.3 12:57:25 36° SSW 12:57:25 36° SSW 13:00:15 10° S
Cosmos 1980 Rocket 2.2 12:59:46 31° SW 13:02:18 56° WNW 13:07:48 10° NNE
Cosmos 1354 Rocket 4.0 12:59:26 10° SSW 13:04:37 85° ESE 13:09:52 10° NNE
Cosmos 836 Rocket 4.4 13:03:45 12° NNW 13:08:32 66° WSW 13:13:40 10° S
CZ-4 R/B 3.9 13:05:22 10° NNE 13:10:22 83° ESE 13:15:18 10° SSW
Meteor 1-11 4.3 13:06:55 10° NNW 13:12:41 63° W 13:18:26 10° S
Cosmos 1697 Rocket 4.2 13:14:45 18° NW 13:14:45 18° NW 13:17:34 10° NNW
Cosmos 2237 4.4 13:13:31 10° SSW 13:19:11 75° ESE 13:24:52 10° NNE
SKYMED 2 3.4 13:15:45 10° S 13:20:03 78° WSW 13:24:25 10° NNW
SL-4 R/B 3.8 13:18:10 12° NNW 13:20:47 22° NE 13:23:47 10° E
Cosmos 990 Rocket 3.9 13:16:48 10° SSW 13:21:59 72° WNW 13:27:13 10° NNE
Cosmos 2297 Rocket 3.4 13:24:25 21° WSW 13:24:25 21° WSW 13:28:01 10° SSW
NOSS 3-1 (C) 3.6 13:23:41 27° WNW 13:24:50 30° NW 13:29:21 10° NNE
BREEZE-M DEB (TANK) 4.1 13:26:52 10° S 13:29:06 29° ESE 13:33:34 10° ENE
NOSS 3-1 (A) 2.6 13:26:51 10° SW 13:31:14 79° WNW 13:36:18 10° NNE
Aurora 2 Rocket 4.5 13:27:42 15° WSW 13:31:43 35° S 13:38:18 10° ESE
Exosat Rocket 3.6 13:27:39 10° NNW 13:32:45 55° WSW 13:37:39 10° S
Cosmos 1782 Rocket 3.6 13:29:20 10° S 13:33:42 82° E 13:38:08 10° N
Cosmos 1908 Rocket 3.8 13:30:04 10° SSW 13:34:10 43° W 13:38:20 10° N
USA 215 4.4 13:31:06 10° ESE 13:37:04 39° NE 13:43:03 10° NNW
OAO 2 Rocket 4.4 13:35:47 18° W 13:38:48 32° SSW 13:43:25 10° SE
Cosmos 2219 3.7 13:33:18 10° NNW 13:38:58 63° ENE 13:44:33 10° SSE
Cosmos 1812 1.8 13:40:57 10° SSW 13:43:13 39° W 13:45:30 10° N
IRS-1D 4.2 13:44:48 10° N 13:49:18 31° WNW 13:53:43 10° SW
DELTA 2 R/B(2) 3.8 13:48:39 17° WNW 13:50:36 55° SSW 13:52:25 10° SE
Cosmos 1484 Rocket 2.4 13:47:25 10° N 13:50:55 87° W 13:54:23 10° SSW
Cosmos 2263 Rocket 2.3 13:47:19 10° NNW 13:52:51 57° WSW 13:58:19 10° S
ISS -2.9 13:50:35 15° W 13:52:54 31° NW 13:55:56 10° NNE
Cosmos 2221 Rocket 4.0 13:49:45 10° NNW 13:54:01 42° W 13:58:14 10° SSW
IGS 5A 3.5 13:52:55 10° N 13:56:46 49° WNW 14:00:34 10° SSW
Intercosmos 25 Rocket 4.3 13:56:08 10° NW 13:58:29 19° W 14:01:01 10° SW
MOS 1 Rocket 3.4 13:56:43 10° NNE 14:01:07 76° ESE 14:05:42 10° S
Cosmos 2173 Rocket 4.2 13:54:52 10° S 14:01:13 86° E 14:07:36 10° N
Aureole 1 Rocket 4.3 13:54:18 10° SSW 14:01:41 68° WNW 14:08:29 10° NNE
Cosmos 2369 4.4 13:57:16 10° SW 14:02:20 33° WNW 14:07:24 10° N
Cosmos 1400 Rocket 3.6 14:01:31 10° SW 14:04:42 26° WNW 14:07:55 10° NNW
Cosmos 1025 Rocket 4.2 14:02:52 10° NW 14:06:10 21° W 14:09:27 10° SW
FALCON 9 R/B 0.0 14:04:27 10° W 14:06:55 78° N 14:09:14 10° E
Cosmos 2082 3.8 14:02:21 10° NNW 14:08:04 89° WSW 14:13:43 10° SSE
H-2A ROCKET BODY 3.5 13:51:24 10° WSW 14:09:09 60° S 14:13:51 10° ESE
Cosmos 1602 2.7 14:07:59 10° N 14:10:45 74° W 14:13:30 10° S
GP-B 3.4 14:06:48 10° NNW 14:10:57 43° W 14:15:05 10° SSW
SL-16 R/B 2.2 14:05:59 10° SSW 14:11:37 75° WNW 14:17:17 10° NNE
Cosmos 2100 Rocket 4.0 14:06:15 10° SSW 14:12:35 74° W 14:18:57 10° N
